{"data":{"norad_id":56067,"epoch":"2026-09-20T04:15:20.955168Z","epoch_age_seconds":46073,"freshness":"FRESH","line1":"1 56067U 23043X   26263.17732587  .00000101  00000+0  21346-3 0  9995","line2":"2 56067  87.9283 225.0668 0002017  88.8805 271.2560 13.21826193170781","mean_motion":13.21826193,"eccentricity":0.0002017,"inclination_deg":87.9283,"raan_deg":225.0668,"arg_perigee_deg":88.8805,"mean_anomaly_deg":271.256,"bstar":0.00021346,"rev_number":17078,"period_min":108.94019256282,"perigee_km":1176.2286099379,"apogee_km":1179.2766558158,"semimajor_km":7555.8896328769,"source":"CELESTRAK","updated_at":"2026-09-20T09:00:44.790969Z"}}